DW8935 Weather Reports


Display with metric or nautical units.
time (UTC)temp
F
wind
direction
speed
MPH
gust
MPH
rain 1hr
in
rain 24hr
in
rain mn
in
humidity
%
barometer
mb
20221127012032 65 227 9.0 13.0 0.00 0.02 0.00 60 1004.0
20221127011531 65 242 8.0 18.0 0.00 0.02 0.00 59 1004.0
20221127011032 65 213 6.0 18.0 0.00 0.02 0.00 58 1003.9
20221127010530 66 230 6.0 13.0 0.00 0.02 0.00 58 1003.9
20221127010030 66 221 7.0 13.0 0.00 0.02 0.00 57 1003.9
20221127005632 66 227 4.0 15.0 0.00 0.02 0.00 57 1003.8
20221127005032 66 209 5.0 15.0 0.00 0.02 0.00 57 1003.9
20221127004533 66 236 7.0 15.0 0.00 0.02 0.00 57 1003.8
20221127004032 66 255 5.0 15.0 0.00 0.02 0.00 58 1003.9
20221127003532 66 261 7.0 14.0 0.00 0.02 0.00 58 1003.9
20221127003042 66 233 4.0 13.0 0.00 0.02 0.00 59 1003.8
20221127002531 65 281 5.0 13.0 0.00 0.02 0.00 57 1003.7
20221127002030 65 308 6.0 13.0 0.00 0.02 0.00 63 1003.9
20221127001533 64 261 8.0 17.0 0.00 0.02 0.00 64 1003.9
20221127001030 64 234 6.0 17.0 0.00 0.02 0.00 64 1003.9
20221127000531 64 281 7.0 14.0 0.00 0.02 0.00 64 1004.0
20221127000030 64 242 6.0 12.0 0.00 0.02 0.00 63 1004.0
20221126235629 64 281 6.0 13.0 0.00 0.02 0.00 63 1004.0
20221126235028 64 267 7.0 13.0 0.00 0.02 0.00 63 1004.1
20221126234527 63 258 6.0 11.0 0.00 0.02 0.00 63 1004.0
20221126234028 63 249 6.0 12.0 0.00 0.02 0.00 63 1003.9
20221126233527 63 235 8.0 17.0 0.00 0.02 0.00 63 1003.9
20221126233030 63 216 6.0 17.0 0.00 0.02 0.00 61 1003.9
20221126232526 63 237 5.0 11.0 0.00 0.02 0.00 62 1003.9
20221126232027 63 229 4.0 12.0 0.00 0.02 0.00 64 1003.9
20221126231526 63 212 5.0 13.0 0.00 0.02 0.00 63 1003.9
20221126231026 63 249 4.0 13.0 0.00 0.02 0.00 62 1003.8
20221126230525 63 242 6.0 11.0 0.00 0.02 0.00 62 1003.9
20221126230026 64 215 3.0 10.0 0.00 0.02 0.00 63 1003.8
20221126225624 63 323 4.0 10.0 0.00 0.02 0.00 64 1003.7
20221126225025 63 243 4.0 10.0 0.00 0.02 0.00 64 1003.8
20221126224525 63 199 4.0 14.0 0.00 0.02 0.00 63 1003.8
20221126224025 64 221 6.0 14.0 0.00 0.02 0.00 66 1003.8
20221126223525 63 213 5.0 11.0 0.00 0.02 0.00 64 1003.8
20221126223023 63 228 6.0 12.0 0.00 0.02 0.00 66 1003.8
20221126222523 63 218 4.0 9.0 0.00 0.02 0.00 68 1003.8
20221126222023 63 242 4.0 12.0 0.00 0.02 0.00 68 1003.8
20221126221529 63 217 4.0 8.0 0.00 0.02 0.00 69 1003.8
20221126221023 63 234 3.0 10.0 0.00 0.02 0.00 72 1003.7
20221126220522 62 203 2.0 11.0 0.00 0.02 0.00 72 1003.7
20221126220034 62 228 4.0 11.0 0.00 0.02 0.00 72 1003.8
20221126215620 62 262 4.0 9.0 0.00 0.02 0.00 73 1003.7
20221126215020 62 256 3.0 9.0 0.00 0.02 0.00 73 1003.8
20221126214520 61 216 5.0 9.0 0.00 0.02 0.00 74 1003.8
20221126214020 61 252 3.0 8.0 0.00 0.02 0.00 74 1003.7
20221126213520 61 286 4.0 8.0 0.00 0.02 0.00 74 1003.7
20221126213022 61 231 2.0 9.0 0.00 0.02 0.00 75 1003.6
20221126212518 61 267 3.0 10.0 0.00 0.02 0.00 75 1003.6
20221126212019 61 244 3.0 10.0 0.00 0.02 0.00 75 1003.5
20221126211519 61 312 3.0 9.0 0.00 0.02 0.00 75 1003.5
20221126211018 61 217 4.0 9.0 0.00 0.02 0.00 75 1003.5
20221126210518 61 226 4.0 8.0 0.00 0.02 0.00 76 1003.5
20221126210017 61 300 3.0 8.0 0.00 0.02 0.00 77 1003.4
20221126205618 61 232 5.0 9.0 0.00 0.02 0.00 78 1003.3
20221126205018 61 259 4.0 8.0 0.00 0.02 0.00 78 1003.3
20221126204517 61 225 3.0 11.0 0.00 0.02 0.00 79 1003.4
20221126204016 61 267 4.0 9.0 0.00 0.02 0.00 79 1003.3
20221126203517 61 232 3.0 7.0 0.00 0.02 0.00 80 1003.3
20221126203016 61 258 2.0 6.0 0.00 0.02 0.00 81 1003.2
20221126202515 61 286 3.0 6.0 0.00 0.02 0.00 82 1003.3
20221126202014 60 248 1.0 5.0 0.00 0.02 0.00 82 1003.2
20221126201519 60 280 1.0 5.0 0.00 0.02 0.00 83 1003.1
20221126201015 60 284 1.0 6.0 0.00 0.02 0.00 83 1003.0
20221126200513 60 284 2.0 7.0 0.00 0.02 0.00 83 1003.0
20221126200014 60 269 4.0 7.0 0.00 0.02 0.00 83 1003.0
20221126195615 60 279 2.0 5.0 0.00 0.02 0.00 83 1003.0
20221126195013 59 286 0.0 4.0 0.00 0.02 0.00 83 1003.0
20221126194517 59 286 2.0 4.0 0.00 0.02 0.00 83 1003.0
20221126194013 59 284 0.0 4.0 0.00 0.02 0.00 83 1003.0
20221126193515 59 284 2.0 4.0 0.00 0.02 0.00 83 1002.9
20221126193019 59 285 0.0 5.0 0.00 0.02 0.00 83 1002.9
20221126192514 59 288 2.0 5.0 0.00 0.02 0.00 83 1002.9
20221126192012 59 289 3.0 5.0 0.00 0.02 0.00 83 1002.9
20221126191520 59 265 0.0 0.0 0.00 0.02 0.00 83 1002.8
20221126191013 59 267 0.0 0.0 0.00 0.02 0.00 83 1002.8
20221126190512 59 264 0.0 0.0 0.00 0.02 0.00 83 1002.8
20221126190014 59 264 0.0 0.0 0.00 0.02 0.00 83 1002.8
20221126185612 59 261 0.0 0.0 0.00 0.02 0.00 82 1002.8
20221126185012 59 259 0.0 0.0 0.00 0.02 0.00 82 1002.8
20221126184512 59 257 0.0 0.0 0.00 0.02 0.00 82 1002.7
20221126184012 59 257 0.0 0.0 0.00 0.02 0.00 82 1002.6
20221126183511 59 257 0.0 0.0 0.00 0.02 0.00 82 1002.6
20221126183014 59 257 0.0 0.0 0.00 0.02 0.00 81 1002.6
20221126182512 59 257 0.0 0.0 0.00 0.02 0.00 81 1002.7
20221126182011 59 267 0.0 4.0 0.00 0.02 0.00 81 1002.7
20221126181516 59 275 0.0 5.0 0.00 0.02 0.00 81 1002.7
20221126181010 59 293 0.0 5.0 0.00 0.02 0.00 81 1002.8
20221126180510 59 269 1.0 5.0 0.00 0.02 0.00 81 1002.8
20221126180010 59 270 1.0 5.0 0.00 0.02 0.00 80 1002.8
20221126175609 59 268 2.0 7.0 0.00 0.02 0.00 80 1002.7
20221126175010 60 294 2.0 7.0 0.00 0.02 0.00 80 1002.7
20221126174512 60 267 0.0 6.0 0.00 0.02 0.00 79 1002.7
20221126174009 60 304 1.0 6.0 0.00 0.02 0.00 79 1002.6
20221126173509 60 269 2.0 5.0 0.00 0.02 0.00 79 1002.7
20221126173010 60 252 2.0 5.0 0.00 0.02 0.00 79 1002.6
20221126172509 60 242 2.0 5.0 0.00 0.02 0.00 80 1002.6
20221126172008 60 241 1.0 8.0 0.00 0.02 0.00 80 1002.7
20221126171509 59 241 3.0 8.0 0.00 0.02 0.00 81 1002.8
20221126171008 59 229 1.0 6.0 0.00 0.02 0.00 81 1002.8
20221126170508 59 264 1.0 8.0 0.00 0.02 0.00 82 1002.9
20221126170008 59 286 3.0 8.0 0.00 0.02 0.00 82 1002.8
20221126165608 59 291 1.0 4.0 0.00 0.02 0.00 82 1002.9
20221126165011 59 289 1.0 4.0 0.00 0.02 0.00 81 1002.9
20221126164506 60 287 1.0 5.0 0.00 0.02 0.00 81 1003.0
20221126164006 60 248 2.0 5.0 0.00 0.02 0.00 81 1002.9
20221126163506 60 263 2.0 7.0 0.00 0.02 0.00 81 1002.9
20221126163005 60 269 3.0 7.0 0.00 0.02 0.00 81 1002.8
20221126162504 60 252 2.0 6.0 0.00 0.02 0.00 81 1002.9
20221126162003 60 238 0.0 7.0 0.00 0.02 0.00 81 1003.0
20221126161505 61 292 0.0 7.0 0.00 0.02 0.00 80 1003.0
20221126161002 61 277 3.0 8.0 0.00 0.02 0.00 80 1002.9
20221126160502 61 216 4.0 8.0 0.00 0.02 0.00 80 1002.9
20221126160112 61 230 1.0 6.0 0.00 0.02 0.00 80 1002.9
20221126155559 61 235 3.0 9.0 0.00 0.02 0.00 81 1002.9
20221126155100 62 238 2.0 9.0 0.00 0.02 0.00 81 1002.9
20221126154559 62 238 0.0 5.0 0.00 0.02 0.00 81 1002.9
20221126154058 62 231 1.0 6.0 0.00 0.02 0.00 82 1002.9
20221126153557 62 279 1.0 6.0 0.00 0.02 0.00 82 1002.9
20221126153111 62 269 1.0 7.0 0.00 0.02 0.00 82 1002.9
20221126152556 62 306 3.0 7.0 0.00 0.02 0.00 82 1002.9
20221126152058 63 301 2.0 5.0 0.00 0.02 0.00 82 1002.9
20221126151555 63 294 0.0 4.0 0.00 0.02 0.00 82 1002.8
20221126151054 63 296 0.0 0.0 0.00 0.02 0.00 81 1002.8
20221126150553 63 295 0.0 2.0 0.00 0.02 0.00 80 1002.8
20221126150057 63 295 0.0 5.0 0.00 0.02 0.00 80 1002.8
20221126145551 64 284 0.0 5.0 0.00 0.02 0.00 79 1002.8
20221126145051 64 284 1.0 5.0 0.00 0.02 0.00 79 1002.8
20221126144550 64 258 1.0 7.0 0.00 0.02 0.00 78 1002.8
20221126144049 64 271 1.0 7.0 0.00 0.02 0.00 77 1002.9
20221126143549 65 275 2.0 7.0 0.00 0.02 0.00 77 1002.9
20221126143048 65 229 1.0 10.0 0.00 0.02 0.00 76 1002.7
20221126142547 65 225 3.0 10.0 0.00 0.02 0.00 76 1002.8
20221126142046 65 212 2.0 8.0 0.00 0.02 0.00 75 1002.7
20221126141549 66 236 2.0 11.0 0.00 0.02 0.00 75 1002.7
20221126141044 66 235 5.0 11.0 0.00 0.02 0.00 74 1002.7
20221126140543 66 235 5.0 11.0 0.00 0.02 0.00 74 1002.8
20221126140042 66 228 2.0 10.0 0.00 0.02 0.00 73 1002.8
20221126135543 66 229 6.0 11.0 0.00 0.02 0.00 74 1002.7
20221126135046 66 239 5.0 11.0 0.00 0.02 0.00 74 1002.7
20221126134542 66 224 4.0 8.0 0.00 0.02 0.00 74 1002.6
20221126134042 66 281 1.0 8.0 0.00 0.02 0.00 74 1002.5
20221126133540 66 236 4.0 8.0 0.00 0.02 0.00 75 1002.5
20221126133042 66 254 1.0 13.0 0.00 0.02 0.00 76 1002.6
20221126132539 66 250 3.0 13.0 0.00 0.02 0.00 77 1002.6
20221126132040 66 263 1.0 8.0 0.00 0.02 0.00 77 1002.7
20221126131541 66 277 3.0 6.0 0.00 0.02 0.00 76 1002.7
20221126131039 66 298 1.0 8.0 0.00 0.02 0.00 76 1002.7
20221126130538 67 290 3.0 8.0 0.00 0.02 0.00 76 1002.6
20221126130040 67 292 4.0 10.0 0.00 0.02 0.02 75 1002.6
20221126125537 67 292 2.0 8.0 0.00 0.02 0.02 75 1002.6
20221126125038 67 275 4.0 8.0 0.00 0.02 0.02 75 1002.6
20221126124537 67 275 3.0 7.0 0.00 0.02 0.02 75 1002.8
20221126124036 67 298 2.0 7.0 0.00 0.02 0.02 75 1002.9
20221126123537 67 261 3.0 8.0 0.00 0.02 0.02 75 1002.9
20221126123037 67 275 4.0 9.0 0.00 0.02 0.02 76 1003.0
20221126122536 66 309 4.0 12.0 0.00 0.02 0.02 76 1002.9
20221126122036 66 234 4.0 13.0 0.00 0.02 0.02 78 1002.8
20221126121536 66 241 5.0 13.0 0.00 0.02 0.02 79 1002.8
20221126121036 66 355 4.0 13.0 0.00 0.02 0.02 81 1002.8
20221126120535 65 217 2.0 6.0 0.00 0.02 0.02 81 1002.7
20221126120049 65 202 0.0 0.0 0.00 0.02 0.02 81 1002.6
20221126115536 66 202 0.0 2.0 0.00 0.02 0.02 80 1002.5
20221126115036 66 202 0.0 2.0 0.00 0.02 0.02 80 1002.5
20221126114550 65 212 0.0 5.0 0.00 0.02 0.02 79 1002.5
20221126114042 66 240 0.0 6.0 0.00 0.02 0.02 79 1002.4
20221126113537 66 326 3.0 8.0 0.01 0.02 0.02 79 1002.2
20221126113040 66 346 2.0 10.0 0.01 0.02 0.02 78 1002.1
20221126112542 66 355 4.0 10.0 0.01 0.02 0.02 78 1001.9
20221126112036 66 338 3.0 10.0 0.01 0.02 0.02 77 1001.9
20221126111537 66 327 5.0 10.0 0.01 0.02 0.02 78 1002.0
20221126111040 66 11 3.0 12.0 0.01 0.02 0.02 79 1002.0
20221126110536 65 351 5.0 12.0 0.01 0.02 0.02 79 1002.0
20221126110035 66 350 2.0 7.0 0.01 0.02 0.02 80 1002.1
20221126105536 66 284 1.0 6.0 0.01 0.02 0.02 81 1002.3
20221126105036 66 284 2.0 6.0 0.01 0.02 0.02 81 1002.3
20221126104545 66 317 1.0 6.0 0.02 0.02 0.02 81 1002.4
20221126104036 66 294 1.0 6.0 0.02 0.02 0.02 80 1002.5
20221126103535 66 314 1.0 8.0 0.02 0.02 0.02 80 1002.6
20221126103042 66 336 4.0 8.0 0.01 0.01 0.01 80 1002.6
20221126102536 66 303 1.0 8.0 0.01 0.01 0.01 79 1002.7
20221126102035 66 304 2.0 8.0 0.01 0.01 0.01 79 1002.6
20221126101541 66 314 2.0 8.0 0.01 0.01 0.01 79 1002.8
20221126101035 66 340 3.0 8.0 0.01 0.01 0.01 78 1002.9
20221126100535 67 308 1.0 8.0 0.01 0.01 0.01 78 1002.9
20221126100042 67 355 3.0 8.0 0.01 0.01 0.01 77 1002.8
20221126095536 68 345 5.0 13.0 0.01 0.01 0.01 75 1003.2
20221126095033 68 24 4.0 13.0 0.01 0.01 0.01 75 1003.3
20221126094534 68 300 6.0 15.0 0.01 0.01 0.01 72 1003.6
20221126094033 69 296 7.0 17.0 0.00 0.00 0.00 70 1004.0
20221126093532 69 281 6.0 19.0 0.00 0.00 0.00 69 1003.8
20221126093041 69 292 6.0 22.0 0.00 0.00 0.00 67 1003.8
20221126092532 70 268 8.0 22.0 0.00 0.00 0.00 66 1003.6
20221126092032 70 290 8.0 18.0 0.00 0.00 0.00 65 1003.5
20221126091533 71 261 7.0 17.0 0.00 0.00 0.00 63 1003.3
20221126091032 71 286 6.0 24.0 0.00 0.00 0.00 62 1003.2
20221126090535 71 285 8.0 24.0 0.00 0.00 0.00 60 1003.2
20221126090037 72 325 11.0 19.0 0.00 0.00 0.00 60 1003.3
20221126085531 74 263 7.0 19.0 0.00 0.00 0.00 56 1003.2
20221126085031 74 236 9.0 19.0 0.00 0.00 0.00 56 1003.0
20221126084543 75 309 8.0 22.0 0.00 0.00 0.00 54 1003.0
20221126084031 77 246 8.0 22.0 0.00 0.00 0.00 49 1002.9
20221126083530 78 256 6.0 16.0 0.00 0.00 0.00 38 1002.7
20221126083031 78 333 9.0 20.0 0.00 0.00 0.00 38 1001.3
20221126082530 78 317 10.0 20.0 0.00 0.00 0.00 38 1001.2
20221126082032 78 312 11.0 22.0 0.00 0.00 0.00 38 1001.1
20221126081531 79 355 10.0 22.0 0.00 0.00 0.00 39 1000.9
20221126081030 79 347 7.0 15.0 0.00 0.00 0.00 38 1001.0
20221126080530 79 307 6.0 15.0 0.00 0.00 0.00 38 1000.9
20221126080030 79 300 6.0 19.0 0.00 0.00 0.00 38 1000.9
20221126075532 79 5 10.0 21.0 0.00 0.00 0.00 37 1000.9
20221126075032 79 355 9.0 21.0 0.00 0.00 0.00 37 1000.9
20221126074530 79 331 5.0 16.0 0.00 0.00 0.00 37 1000.8
20221126074032 79 9 7.0 16.0 0.00 0.00 0.00 38 1000.7
20221126073530 79 340 7.0 14.0 0.00 0.00 0.00 38 1000.7
20221126073032 79 355 4.0 14.0 0.00 0.00 0.00 38 1000.8
20221126072529 79 316 7.0 14.0 0.00 0.00 0.00 38 1001.0
20221126072029 80 348 5.0 13.0 0.00 0.00 0.00 39 1000.8
20221126071527 80 319 3.0 11.0 0.00 0.00 0.00 39 1000.9
20221126071031 80 28 4.0 11.0 0.00 0.00 0.00 39 1001.1
20221126070526 80 355 4.0 9.0 0.00 0.00 0.00 39 1001.2
20221126070028 80 355 4.0 11.0 0.00 0.00 0.00 39 1001.3
20221126065528 81 290 6.0 11.0 0.00 0.00 0.00 39 1001.5
20221126065025 81 360 6.0 11.0 0.00 0.00 0.00 39 1001.5
20221126064529 81 342 4.0 11.0 0.00 0.00 0.00 39 1001.5
20221126064024 81 275 5.0 12.0 0.00 0.00 0.00 39 1001.5
20221126063526 81 336 3.0 9.0 0.00 0.00 0.00 38 1001.7
20221126063036 81 344 5.0 9.0 0.00 0.00 0.00 38 1001.8
20221126062522 81 319 3.0 11.0 0.00 0.00 0.00 39 1001.9
20221126062022 81 10 7.0 12.0 0.00 0.00 0.00 38 1001.9
20221126061522 81 360 6.0 15.0 0.00 0.00 0.00 38 1001.8
20221126061021 82 332 5.0 17.0 0.00 0.00 0.00 37 1001.9
20221126060520 82 320 8.0 17.0 0.00 0.00 0.00 37 1002.0
20221126060020 82 274 10.0 17.0 0.00 0.00 0.00 37 1002.2
20221126055520 82 319 4.0 12.0 0.00 0.00 0.00 39 1002.0
20221126055020 82 349 3.0 18.0 0.00 0.00 0.00 39 1002.0
20221126054522 82 292 4.0 18.0 0.00 0.00 0.00 38 1002.1
20221126054020 83 308 7.0 17.0 0.00 0.00 0.00 37 1002.1
20221126053519 83 315 7.0 18.0 0.00 0.00 0.00 37 1002.1
20221126053018 83 355 7.0 18.0 0.00 0.00 0.00 36 1002.2
20221126052520 84 333 5.0 16.0 0.00 0.00 0.00 36 1002.3
20221126052018 84 321 7.0 17.0 0.00 0.00 0.00 36 1002.3
20221126051516 84 355 10.0 19.0 0.00 0.00 0.00 35 1002.5
20221126051016 84 360 7.0 20.0 0.00 0.00 0.00 35 1002.6
20221126050515 84 24 4.0 14.0 0.00 0.00 0.00 37 1002.6
20221126050035 83 327 6.0 15.0 0.00 0.00 0.00 37 1002.7
20221126045513 83 360 7.0 22.0 0.00 0.00 0.00 37 1003.0
20221126045013 82 317 7.0 22.0 0.00 0.00 0.00 37 1003.0
20221126044512 83 321 10.0 17.0 0.00 0.00 0.00 37 1003.2
20221126044012 83 346 8.0 14.0 0.00 0.00 0.00 37 1003.3
20221126043510 83 13 6.0 12.0 0.00 0.00 0.00 37 1003.6
20221126043010 83 330 6.0 18.0 0.00 0.00 0.00 37 1003.8
20221126042509 82 294 10.0 23.0 0.00 0.00 0.00 36 1003.8
20221126042012 82 341 8.0 23.0 0.00 0.00 0.00 36 1003.8
20221126041508 82 315 8.0 17.0 0.00 0.00 0.00 37 1003.9
20221126041008 83 342 7.0 16.0 0.00 0.00 0.00 38 1003.8
20221126040507 83 304 7.0 14.0 0.00 0.00 0.00 39 1003.9
20221126040009 83 24 7.0 15.0 0.00 0.00 0.00 39 1004.2
20221126035505 83 340 6.0 16.0 0.00 0.00 0.00 38 1004.5
20221126035007 83 350 5.0 16.0 0.00 0.00 0.00 38 1004.5
20221126034507 84 355 8.0 15.0 0.00 0.00 0.00 37 1004.6
20221126034005 84 302 7.0 14.0 0.00 0.00 0.00 37 1004.7
20221126033504 84 9 5.0 14.0 0.00 0.00 0.00 38 1004.7
20221126033004 84 328 7.0 16.0 0.00 0.00 0.00 37 1004.9
20221126032502 84 5 9.0 16.0 0.00 0.00 0.00 37 1005.0
20221126032003 85 360 7.0 16.0 0.00 0.00 0.00 36 1005.1
20221126031502 85 5 7.0 17.0 0.00 0.00 0.00 35 1005.2
20221126031002 85 27 8.0 19.0 0.00 0.00 0.00 36 1005.3
20221126030600 84 323 9.0 19.0 0.00 0.00 0.00 34 1005.5
20221126030100 85 340 11.0 19.0 0.00 0.00 0.00 34 1005.7
20221126025600 85 350 8.0 16.0 0.00 0.00 0.00 34 1005.7
20221126024558 84 321 6.0 16.0 0.00 0.00 0.00 37 1005.9
20221126024056 84 355 9.0 16.0 0.00 0.00 0.00 37 1006.1
20221126023556 83 348 8.0 14.0 0.00 0.00 0.00 36 1006.3
20221126023101 83 333 7.0 16.0 0.00 0.00 0.00 36 1006.4
20221126022558 83 329 9.0 19.0 0.00 0.00 0.00 36 1006.4
20221126022052 83 337 10.0 19.0 0.00 0.00 0.00 36 1006.5
20221126021552 83 309 7.0 17.0 0.00 0.00 0.00 36 1006.7
20221126021050 83 313 9.0 21.0 0.00 0.00 0.00 36 1007.0
20221126020552 82 319 9.0 15.0 0.00 0.00 0.00 36 1007.0
20221126020048 82 288 7.0 18.0 0.00 0.00 0.00 37 1007.2
20221126015547 82 5 7.0 18.0 0.00 0.00 0.00 37 1007.3
20221126014550 82 355 9.0 17.0 0.00 0.00 0.00 36 1007.6
20221126014044 82 348 8.0 15.0 0.00 0.00 0.00 37 1007.7
20221126013543 82 360 7.0 19.0 0.00 0.00 0.00 38 1007.7
20221126013044 82 360 8.0 19.0 0.00 0.00 0.00 37 1008.1
20221126012541 82 13 10.0 18.0 0.00 0.00 0.00 38 1008.3